Time,TemperatureF,DewpointF,PressureIn,WindDirection,WindDirectionDegrees,WindSpeedMPH,WindSpeedGustMPH,Humidity,HourlyPrecipIn,Conditions,Clouds,dailyrainin,SoftwareType,DateUTC
2013-03-19 00:02:00,27.0,18.0,29.88,West,259,12.0,24.0,67,0.00,,,0.09,,2013-03-19 05:02:00,
2013-03-19 00:12:00,27.0,18.0,29.88,West,259,12.0,24.0,67,0.00,,,0.09,,2013-03-19 05:12:00,
2013-03-19 00:22:00,27.0,18.0,29.88,West,263,13.0,21.0,68,0.00,,,0.09,,2013-03-19 05:22:00,
2013-03-19 00:32:00,27.0,18.0,29.88,West,260,18.0,29.0,67,0.00,,,0.08,,2013-03-19 05:32:00,
2013-03-19 00:42:00,27.0,18.0,29.88,West,260,18.0,29.0,67,0.00,,,0.08,,2013-03-19 05:42:00,
2013-03-19 00:52:00,27.0,18.0,29.89,WSW,244,19.0,33.0,68,0.00,,,0.08,,2013-03-19 05:52:00,
2013-03-19 01:02:00,26.0,15.0,29.89,West,264,22.0,30.0,63,0.00,,,0.08,,2013-03-19 06:02:00,
2013-03-19 01:12:00,26.0,15.0,29.89,West,264,22.0,30.0,63,0.00,,,0.08,,2013-03-19 06:12:00,
2013-03-19 01:22:00,26.0,14.0,29.89,WSW,242,22.0,33.0,61,0.00,,,0.08,,2013-03-19 06:22:00,
2013-03-19 01:32:00,26.0,14.0,29.89,WSW,242,22.0,33.0,61,0.00,,,0.08,,2013-03-19 06:32:00,
2013-03-19 01:42:00,26.0,14.0,29.89,WSW,242,22.0,33.0,61,0.00,,,0.08,,2013-03-19 06:42:00,
2013-03-19 01:52:00,26.0,15.0,29.89,WSW,242,14.0,36.0,62,0.00,,,0.08,,2013-03-19 06:52:00,
2013-03-19 02:02:00,26.0,15.0,29.89,WSW,242,14.0,36.0,62,0.00,,,0.08,,2013-03-19 07:02:00,
2013-03-19 02:12:00,26.0,15.0,29.89,WSW,242,14.0,36.0,62,0.00,,,0.08,,2013-03-19 07:12:00,
2013-03-19 02:21:00,26.0,16.0,29.89,WSW,248,10.0,35.0,64,0.00,,,0.08,,2013-03-19 07:21:00,
2013-03-19 02:32:00,26.0,16.0,29.89,WSW,248,10.0,35.0,64,0.00,,,0.08,,2013-03-19 07:32:00,
2013-03-19 02:42:00,26.0,16.0,29.89,WSW,248,10.0,35.0,64,0.00,,,0.08,,2013-03-19 07:42:00,
2013-03-19 02:52:00,26.0,16.0,29.89,WSW,248,10.0,35.0,64,0.00,,,0.08,,2013-03-19 07:52:00,
2013-03-19 03:02:00,25.0,15.0,29.89,WSW,258,9.0,20.0,66,0.00,,,0.07,,2013-03-19 08:02:00,
2013-03-19 03:12:00,25.0,15.0,29.89,WSW,258,9.0,20.0,66,0.00,,,0.07,,2013-03-19 08:12:00,
2013-03-19 03:22:00,25.0,15.0,29.89,West,262,8.0,18.0,66,0.00,,,0.07,,2013-03-19 08:22:00,
2013-03-19 03:31:00,25.0,16.0,29.91,West,280,10.0,20.0,68,0.00,,,0.06,,2013-03-19 08:31:00,
2013-03-19 03:32:00,25.0,15.0,29.89,SSW,212,9.0,23.0,66,0.00,,,0.07,,2013-03-19 08:32:00,
2013-03-19 03:42:00,25.0,15.0,29.89,SSW,212,9.0,23.0,66,0.00,,,0.07,,2013-03-19 08:42:00,
2013-03-19 03:52:00,25.0,16.0,29.91,West,280,10.0,20.0,68,0.00,,,0.06,,2013-03-19 08:52:00,
2013-03-19 04:02:00,25.0,16.0,29.91,West,280,10.0,20.0,68,0.00,,,0.06,,2013-03-19 09:02:00,
2013-03-19 04:12:00,25.0,16.0,29.91,West,280,10.0,20.0,68,0.00,,,0.06,,2013-03-19 09:12:00,
2013-03-19 04:22:00,25.0,16.0,29.91,West,280,10.0,20.0,68,0.00,,,0.06,,2013-03-19 09:22:00,
2013-03-19 04:53:00,25.0,16.0,29.90,WSW,251,12.0,20.0,69,0.00,,,0.06,,2013-03-19 09:53:00,
2013-03-19 05:03:00,25.0,16.0,29.91,WSW,251,12.0,25.0,67,0.00,,,0.06,,2013-03-19 10:03:00,
2013-03-19 05:12:00,25.0,16.0,29.91,WSW,251,12.0,25.0,67,0.00,,,0.06,,2013-03-19 10:12:00,
2013-03-19 05:23:00,25.0,16.0,29.92,WNW,288,12.0,21.0,68,0.00,,,0.06,,2013-03-19 10:23:00,
2013-03-19 05:32:00,25.0,16.0,29.93,West,270,10.0,20.0,69,0.00,,,0.06,,2013-03-19 10:32:00,
2013-03-19 05:42:00,25.0,16.0,29.93,West,270,10.0,20.0,69,0.00,,,0.06,,2013-03-19 10:42:00,
2013-03-19 05:53:00,24.0,16.0,29.93,WSW,248,12.0,21.0,70,0.00,,,0.06,,2013-03-19 10:53:00,
2013-03-19 06:02:00,24.0,16.0,29.93,West,272,9.0,21.0,70,0.00,,,0.06,,2013-03-19 11:02:00,
2013-03-19 06:12:00,24.0,16.0,29.93,West,272,9.0,21.0,70,0.00,,,0.06,,2013-03-19 11:12:00,
2013-03-19 06:22:00,24.0,16.0,29.94,WSW,258,9.0,25.0,71,0.00,,,0.06,,2013-03-19 11:22:00,
2013-03-19 06:32:00,24.0,16.0,29.94,West,264,9.0,14.0,72,0.00,,,0.06,,2013-03-19 11:32:00,
2013-03-19 06:42:00,24.0,16.0,29.94,West,264,9.0,14.0,72,0.00,,,0.06,,2013-03-19 11:42:00,
2013-03-19 06:52:00,23.0,14.0,29.95,WSW,240,13.0,20.0,69,0.00,,,0.06,,2013-03-19 11:52:00,
2013-03-19 07:02:00,23.0,14.0,29.95,SW,224,17.0,25.0,67,0.00,,,0.06,,2013-03-19 12:02:00,
2013-03-19 07:12:00,23.0,14.0,29.95,SW,224,17.0,25.0,67,0.00,,,0.06,,2013-03-19 12:12:00,
2013-03-19 07:22:00,23.0,13.0,29.95,SW,230,7.0,25.0,66,0.00,,,0.05,,2013-03-19 12:22:00,
2013-03-19 07:32:00,23.0,13.0,29.96,SW,228,9.0,15.0,66,0.00,,,0.05,,2013-03-19 12:32:00,
2013-03-19 07:41:00,23.0,13.0,29.96,WSW,247,7.0,20.0,64,0.00,,,0.04,,2013-03-19 12:41:00,
2013-03-19 07:42:00,23.0,13.0,29.96,SW,228,9.0,15.0,66,0.00,,,0.05,,2013-03-19 12:42:00,
2013-03-19 07:52:00,23.0,12.0,29.96,WSW,249,12.0,25.0,63,0.00,,,0.04,,2013-03-19 12:52:00,
2013-03-19 08:02:00,23.0,13.0,29.96,WSW,247,7.0,20.0,64,0.00,,,0.04,,2013-03-19 13:02:00,
2013-03-19 08:12:00,23.0,13.0,29.96,WSW,247,7.0,20.0,64,0.00,,,0.04,,2013-03-19 13:12:00,
2013-03-19 08:22:00,23.0,13.0,29.96,WSW,247,7.0,20.0,64,0.00,,,0.04,,2013-03-19 13:22:00,
2013-03-19 08:32:00,23.0,13.0,29.96,WSW,247,7.0,20.0,64,0.00,,,0.04,,2013-03-19 13:32:00,
2013-03-19 08:53:00,23.0,12.0,29.98,WNW,284,14.0,35.0,61,0.00,,,0.01,,2013-03-19 13:53:00,
2013-03-19 09:02:00,23.0,12.0,29.98,WNW,284,14.0,35.0,61,0.00,,,0.01,,2013-03-19 14:02:00,
2013-03-19 09:12:00,23.0,12.0,29.98,WNW,284,14.0,35.0,61,0.00,,,0.01,,2013-03-19 14:12:00,
2013-03-19 09:22:00,24.0,12.0,30.00,SW,235,18.0,30.0,59,0.00,,,0.00,,2013-03-19 14:22:00,
2013-03-19 09:32:00,24.0,12.0,30.00,SW,235,18.0,30.0,59,0.00,,,0.00,,2013-03-19 14:32:00,
2013-03-19 09:42:00,24.0,12.0,30.00,SW,235,18.0,30.0,59,0.00,,,0.00,,2013-03-19 14:42:00,
2013-03-19 09:52:00,25.0,12.0,30.00,WSW,246,15.0,35.0,57,0.00,,,0.00,,2013-03-19 14:52:00,
2013-03-19 10:02:00,26.0,13.0,30.01,South,186,17.0,25.0,57,0.00,,,0.00,,2013-03-19 15:02:00,
2013-03-19 10:12:00,26.0,13.0,30.01,South,186,17.0,25.0,57,0.00,,,0.00,,2013-03-19 15:12:00,
2013-03-19 10:22:00,26.0,13.0,30.02,West,260,11.0,38.0,58,0.00,,,0.00,,2013-03-19 15:22:00,
2013-03-19 10:33:00,26.0,12.0,30.01,WSW,246,16.0,29.0,56,0.00,,,0.00,,2013-03-19 15:33:00,
2013-03-19 10:43:00,26.0,12.0,30.01,WSW,246,16.0,29.0,56,0.00,,,0.00,,2013-03-19 15:43:00,
2013-03-19 10:53:00,27.0,12.0,30.02,WSW,253,20.0,26.0,53,0.00,,,0.00,,2013-03-19 15:53:00,
2013-03-19 11:03:00,27.0,12.0,30.02,WSW,253,20.0,26.0,53,0.00,,,0.00,,2013-03-19 16:03:00,
2013-03-19 11:13:00,27.0,12.0,30.02,WSW,253,20.0,26.0,53,0.00,,,0.00,,2013-03-19 16:13:00,
2013-03-19 11:24:00,29.0,15.0,30.03,SW,231,19.0,29.0,56,0.00,,,0.00,,2013-03-19 16:24:00,
2013-03-19 11:34:00,29.0,15.0,30.04,South,186,15.0,30.0,56,0.00,,,0.00,,2013-03-19 16:34:00,
2013-03-19 11:44:00,29.0,15.0,30.04,South,186,15.0,30.0,56,0.00,,,0.00,,2013-03-19 16:44:00,
2013-03-19 11:54:00,29.0,14.0,30.05,SW,234,25.0,36.0,53,0.00,,,0.00,,2013-03-19 16:54:00,
2013-03-19 12:03:00,31.0,16.0,30.05,SW,226,13.0,29.0,54,0.00,,,0.00,,2013-03-19 17:03:00,
2013-03-19 12:13:00,31.0,16.0,30.06,West,263,20.0,31.0,53,0.00,,,0.00,,2013-03-19 17:13:00,
2013-03-19 12:23:00,31.0,16.0,30.06,West,263,20.0,31.0,53,0.00,,,0.00,,2013-03-19 17:23:00,
2013-03-19 12:34:00,32.0,16.0,30.06,West,281,27.0,31.0,51,0.00,,,0.00,,2013-03-19 17:34:00,
2013-03-19 12:43:00,32.0,16.0,30.06,West,281,27.0,31.0,51,0.00,,,0.00,,2013-03-19 17:43:00,
2013-03-19 12:53:00,33.0,16.0,30.06,WSW,237,21.0,38.0,50,0.00,,,0.00,,2013-03-19 17:53:00,
2013-03-19 13:02:00,33.0,16.0,30.06,WSW,237,21.0,38.0,50,0.00,,,0.00,,2013-03-19 18:02:00,
2013-03-19 13:13:00,33.0,16.0,30.06,WSW,237,21.0,38.0,50,0.00,,,0.00,,2013-03-19 18:13:00,
2013-03-19 13:23:00,34.0,18.0,30.08,WSW,239,16.0,30.0,51,0.00,,,0.00,,2013-03-19 18:23:00,
2013-03-19 13:33:00,34.0,17.0,30.08,West,263,18.0,29.0,49,0.00,,,0.00,,2013-03-19 18:33:00,
2013-03-19 13:53:00,35.0,17.0,30.07,WSW,244,16.0,35.0,48,0.00,,,0.00,,2013-03-19 18:53:00,
2013-03-19 14:02:00,36.0,18.0,30.07,WSW,254,15.0,33.0,47,0.00,,,0.00,,2013-03-19 19:02:00,
2013-03-19 14:12:00,36.0,18.0,30.07,WSW,254,15.0,33.0,47,0.00,,,0.00,,2013-03-19 19:12:00,
2013-03-19 14:22:00,36.0,18.0,30.08,SSW,207,14.0,31.0,47,0.00,,,0.00,,2013-03-19 19:22:00,
2013-03-19 14:32:00,37.0,17.0,30.07,West,263,21.0,30.0,43,0.00,,,0.00,,2013-03-19 19:32:00,
2013-03-19 14:42:00,37.0,17.0,30.07,West,263,21.0,30.0,43,0.00,,,0.00,,2013-03-19 19:42:00,
2013-03-19 14:53:00,37.0,17.0,30.07,West,263,21.0,30.0,43,0.00,,,0.00,,2013-03-19 19:53:00,
2013-03-19 15:02:00,38.0,17.0,30.06,SW,227,18.0,31.0,42,0.00,,,0.00,,2013-03-19 20:02:00,
2013-03-19 15:12:00,38.0,16.0,30.07,WSW,242,20.0,33.0,40,0.00,,,0.00,,2013-03-19 20:12:00,
2013-03-19 15:22:00,38.0,16.0,30.07,WSW,242,20.0,33.0,40,0.00,,,0.00,,2013-03-19 20:22:00,
2013-03-19 15:32:00,39.0,17.0,30.07,WSW,253,21.0,31.0,40,0.00,,,0.00,,2013-03-19 20:32:00,
2013-03-19 15:42:00,39.0,17.0,30.07,WSW,253,21.0,31.0,40,0.00,,,0.00,,2013-03-19 20:42:00,
2013-03-19 15:53:00,40.0,17.0,30.07,West,266,14.0,30.0,39,0.00,,,0.00,,2013-03-19 20:53:00,
2013-03-19 16:02:00,40.0,17.0,30.07,West,266,14.0,30.0,39,0.00,,,0.00,,2013-03-19 21:02:00,
2013-03-19 16:12:00,40.0,16.0,30.07,WSW,255,16.0,29.0,37,0.00,,,0.00,,2013-03-19 21:12:00,
2013-03-19 16:22:00,40.0,16.0,30.07,WSW,255,16.0,29.0,37,0.00,,,0.00,,2013-03-19 21:22:00,
2013-03-19 16:33:00,40.0,16.0,30.07,WSW,248,13.0,23.0,38,0.00,,,0.00,,2013-03-19 21:33:00,
2013-03-19 16:43:00,40.0,16.0,30.07,WSW,248,13.0,23.0,38,0.00,,,0.00,,2013-03-19 21:43:00,
2013-03-19 16:53:00,41.0,17.0,30.08,West,260,8.0,29.0,37,0.00,,,0.00,,2013-03-19 21:53:00,
2013-03-19 17:03:00,41.0,17.0,30.08,West,260,8.0,29.0,37,0.00,,,0.00,,2013-03-19 22:03:00,
2013-03-19 17:12:00,41.0,17.0,30.08,West,260,8.0,29.0,37,0.00,,,0.00,,2013-03-19 22:12:00,
2013-03-19 17:23:00,40.0,16.0,30.09,WSW,238,8.0,29.0,37,0.00,,,0.00,,2013-03-19 22:23:00,
2013-03-19 17:33:00,40.0,14.0,30.09,WSW,250,19.0,29.0,34,0.00,,,0.00,,2013-03-19 22:33:00,
2013-03-19 17:44:00,40.0,15.0,30.09,WSW,247,14.0,25.0,36,0.00,,,0.00,,2013-03-19 22:44:00,
2013-03-19 17:53:00,40.0,15.0,30.09,WSW,247,14.0,25.0,36,0.00,,,0.00,,2013-03-19 22:53:00,
2013-03-19 18:02:00,40.0,16.0,30.08,West,273,10.0,21.0,37,0.00,,,0.00,,2013-03-19 23:02:00,
2013-03-19 18:12:00,40.0,16.0,30.08,West,273,10.0,21.0,37,0.00,,,0.00,,2013-03-19 23:12:00,
2013-03-19 18:22:00,39.0,13.0,30.09,WSW,255,14.0,24.0,34,0.00,,,0.00,,2013-03-19 23:22:00,
2013-03-19 18:32:00,39.0,14.0,30.09,WSW,258,12.0,26.0,35,0.00,,,0.00,,2013-03-19 23:32:00,
2013-03-19 18:42:00,39.0,14.0,30.09,WSW,258,12.0,26.0,35,0.00,,,0.00,,2013-03-19 23:42:00,
2013-03-19 18:52:00,38.0,15.0,30.09,WSW,239,12.0,24.0,38,0.00,,,0.00,,2013-03-19 23:52:00,
2013-03-19 19:02:00,38.0,16.0,30.09,West,260,5.0,10.0,40,0.00,,,0.00,,2013-03-20 00:02:00,
2013-03-19 19:12:00,38.0,16.0,30.09,West,260,5.0,10.0,40,0.00,,,0.00,,2013-03-20 00:12:00,
2013-03-19 19:22:00,38.0,17.0,30.10,West,276,6.0,15.0,42,0.00,,,0.00,,2013-03-20 00:22:00,
2013-03-19 19:33:00,37.0,17.0,30.10,West,265,6.0,14.0,43,0.00,,,0.00,,2013-03-20 00:33:00,
2013-03-19 19:42:00,37.0,17.0,30.10,West,265,6.0,14.0,43,0.00,,,0.00,,2013-03-20 00:42:00,
2013-03-19 19:52:00,36.0,17.0,30.10,West,273,6.0,14.0,45,0.00,,,0.00,,2013-03-20 00:52:00,
2013-03-19 20:02:00,36.0,17.0,30.10,West,273,6.0,14.0,45,0.00,,,0.00,,2013-03-20 01:02:00,
2013-03-19 20:12:00,36.0,17.0,30.10,West,273,6.0,14.0,45,0.00,,,0.00,,2013-03-20 01:12:00,
2013-03-19 20:22:00,35.0,17.0,30.11,West,268,5.0,10.0,48,0.00,,,0.00,,2013-03-20 01:22:00,
2013-03-19 20:32:00,35.0,18.0,30.11,WSW,241,6.0,15.0,49,0.00,,,0.00,,2013-03-20 01:32:00,
2013-03-19 20:43:00,35.0,18.0,30.11,WSW,241,6.0,15.0,49,0.00,,,0.00,,2013-03-20 01:43:00,
2013-03-19 20:53:00,34.0,17.0,30.11,WSW,257,3.0,10.0,50,0.00,,,0.00,,2013-03-20 01:53:00,
2013-03-19 21:02:00,34.0,17.0,30.11,WSW,257,3.0,10.0,50,0.00,,,0.00,,2013-03-20 02:02:00,
2013-03-19 21:12:00,34.0,17.0,30.11,WSW,257,3.0,10.0,50,0.00,,,0.00,,2013-03-20 02:12:00,
2013-03-19 21:22:00,33.0,18.0,30.11,WSW,239,1.0,8.0,53,0.00,,,0.00,,2013-03-20 02:22:00,
2013-03-19 21:32:00,33.0,19.0,30.11,West,263,2.0,8.0,55,0.00,,,0.00,,2013-03-20 02:32:00,
2013-03-19 21:43:00,33.0,19.0,30.11,West,263,2.0,8.0,55,0.00,,,0.00,,2013-03-20 02:43:00,
2013-03-19 21:53:00,32.0,19.0,30.11,West,268,1.0,8.0,57,0.00,,,0.00,,2013-03-20 02:53:00,
2013-03-19 22:02:00,32.0,19.0,30.11,West,268,1.0,8.0,57,0.00,,,0.00,,2013-03-20 03:02:00,
2013-03-19 22:12:00,31.0,18.0,30.11,WSW,250,0.0,8.0,58,0.00,,,0.00,,2013-03-20 03:12:00,
2013-03-19 22:22:00,31.0,18.0,30.11,WSW,250,0.0,8.0,58,0.00,,,0.00,,2013-03-20 03:22:00,
2013-03-19 22:33:00,31.0,18.0,30.11,WSW,251,0.0,3.0,58,0.00,,,0.00,,2013-03-20 03:33:00,
2013-03-19 22:43:00,31.0,18.0,30.11,WSW,251,0.0,3.0,58,0.00,,,0.00,,2013-03-20 03:43:00,
2013-03-19 22:53:00,31.0,19.0,30.11,WSW,249,3.0,6.0,61,0.00,,,0.00,,2013-03-20 03:53:00,
2013-03-19 23:03:00,31.0,20.0,30.11,West,264,2.0,6.0,62,0.00,,,0.00,,2013-03-20 04:03:00,
2013-03-19 23:12:00,31.0,20.0,30.11,West,264,2.0,6.0,62,0.00,,,0.00,,2013-03-20 04:12:00,
2013-03-19 23:22:00,31.0,20.0,30.11,West,264,2.0,6.0,62,0.00,,,0.00,,2013-03-20 04:22:00,
2013-03-19 23:32:00,30.0,19.0,30.11,West,263,0.0,5.0,62,0.00,,,0.00,,2013-03-20 04:32:00,
2013-03-19 23:43:00,30.0,19.0,30.11,West,263,0.0,5.0,62,0.00,,,0.00,,2013-03-20 04:43:00,
2013-03-19 23:53:00,30.0,19.0,30.11,West,263,0.0,5.0,62,0.00,,,0.00,,2013-03-20 04:53:00,